Regional Weather Roundup
Issued by NWS

Home | Current Version | Previous Version | Graphics & Text | Print | Product List | Glossary Off
Versions: 1 2 3 4 5 6 7 8 9 10 11 12 13 14 15 16 17 18 19 20 21 22 23 24 25 26 27 28 29 30 31 32 33 34 35 36 37 38 39 40 41 42 43 44 45 46 47 48 49 50

000
ASUS45 KABQ 161610
RWRNM
NEW MEXICO REGIONAL WEATHER ROUNDUP
NATIONAL WEATHER SERVICE ALBUQUERQUE NM
1000 AM MDT WED AUG 16 2017

NOTE: "FAIR" MEANS FEW OR NO CLOUDS BELOW 12,000 FEET AGL WITH NO
       SIGNIFICANT WEATHER OR OBSTRUCTIONS TO VISION.

      THIS PRODUCT IS RELEASED AS TWO VERSIONS.  ONE VERSION NEAR
      THE TOP OF THE HOUR CONTAINING PRELIMINARY DATA FROM ALBUQUERQUE
      AND OTHER STATIONS.  A FINAL VERSION WITH ADDITIONAL DATA IS
      ISSUED ABOUT 10 MINUTES AFTER THE HOUR.

NMZ501-503-504-510>518-161700-
NORTHWEST PLATEAU/NORTHCENTRAL MOUNTAINS

CITY           SKY/WX    TMP DP  RH WIND       PRES   REMARKS
FARMINGTON     FAIR      66  39  37 E8        30.17R
LOS ALAMOS     FAIR      66  34  30 NE5       30.27S
SANTA FE       FAIR      70  38  31 SW9       30.21S
TAOS           FAIR      67  36  31 SW9       30.27F
ANGEL FIRE     FAIR      60  34  37 W8G18     30.32R

$$
NMZ402-403-502-505>509-161700-
WESTCENTRAL MOUNTAINS/SOUTHWEST MOUNTAINS

CITY           SKY/WX    TMP DP  RH WIND       PRES   REMARKS
GALLUP         FAIR      68  37  32 VRB6      30.25S
GRANTS         FAIR      72  33  23 N5        30.26S
SILVER CITY    FAIR      75  47  36 W7        30.21R

$$
NMZ407-409-411-412-161700-
SOUTHERN DESERTS

CITY           SKY/WX    TMP DP  RH WIND       PRES   REMARKS
DEMING         FAIR      79  51  37 W14       30.14R
LAS CRUCES     FAIR      79  53  39 NE5       30.14S
HOLLOMAN AFB   FAIR      84  53  34 CALM      30.10S
ALAMOGORDO     FAIR      79  52  38 W3        30.10S
T OR C         FAIR      81  45  28 CALM      30.15R

$$
NMZ519>523-161700-
CENTRAL VALLEYS/CENTRAL HIGHLANDS

CITY           SKY/WX    TMP DP  RH WIND       PRES   REMARKS
ALBUQUERQUE    FAIR      72  39  30 SW6       30.19R
DOUBLE EAGLE   MOSUNNY   73  39  29 CALM      30.21S
MORIARTY ARPT  FAIR      74  46  36 SE3       30.22F
CLINES CORNERS FAIR      70  37  29 W9        30.26S
BELEN          FAIR      77  37  23 SW6       30.18S
SOCORRO        FAIR      77  42  28 CALM      30.15F

$$
NMZ524>526-539-540-161700-
SOUTHCENTRAL MOUNTAINS

CITY           SKY/WX    TMP DP  RH WIND       PRES   REMARKS
RUIDOSO        FAIR      72  37  28 NW13G20   30.28R

$$
NMZ527>531-161700-
NORTHEAST HIGHLANDS/NORTHEAST PLAINS

CITY           SKY/WX    TMP DP  RH WIND       PRES   REMARKS
LAS VEGAS      FAIR      68  40  35 S8        30.23R
RATON          FAIR      66  49  54 E7        30.18S
CLAYTON        FAIR      69  55  60 N14       30.12R

$$
NMZ532>537-161700-
EASTCENTRAL PLAINS

CITY           SKY/WX    TMP DP  RH WIND       PRES   REMARKS
SANTA ROSA     FAIR      80  40  23 NW13      30.09S
TUCUMCARI      FAIR      78  54  43 NE14      30.05R
CANNON AFB     FAIR      74  62  65 N12       30.08R
CLOVIS AIRPORT NOT AVBL

$$
NMZ028-029-538-161700-
SOUTHEAST PLAINS

CITY           SKY/WX    TMP DP  RH WIND       PRES   REMARKS
ROSWELL        FAIR      82  54  37 N7        30.02S
ARTESIA        FAIR      82  52  34 N8        30.03R
CARLSBAD       FAIR      83  59  44 N8        30.01R
HOBBS          SUNNY     81  63  54 N9        30.02R


$$




USA.gov is the U.S. government's official web portal to all federal, state and local government web resources and services.